TimeEDT,TemperatureF,Dew PointF,Humidity,Sea Level PressureIn,VisibilityMPH,Wind Direction,Wind SpeedMPH,Gust SpeedMPH,PrecipitationIn,Events,Conditions,WindDirDegrees,DateUTC
12:51 AM,60.1,55.9,86,30.02,10.0,SW,4.6,-,N/A,,Scattered Clouds,220,2013-09-21 04:51:00
1:51 AM,61.0,57.0,87,30.01,10.0,SSW,4.6,-,N/A,,Mostly Cloudy,210,2013-09-21 05:51:00
2:51 AM,62.1,57.9,86,29.99,10.0,Calm,Calm,-,N/A,,Mostly Cloudy,0,2013-09-21 06:51:00
3:51 AM,61.0,57.9,90,29.98,10.0,SE,4.6,-,N/A,,Mostly Cloudy,140,2013-09-21 07:51:00
4:51 AM,61.0,57.0,87,29.97,10.0,South,3.5,-,N/A,,Mostly Cloudy,170,2013-09-21 08:51:00
5:51 AM,59.0,55.9,90,29.97,10.0,Calm,Calm,-,N/A,,Scattered Clouds,0,2013-09-21 09:51:00
6:51 AM,59.0,55.9,90,29.97,10.0,Calm,Calm,-,N/A,,Mostly Cloudy,0,2013-09-21 10:51:00
7:51 AM,61.0,57.9,90,29.97,10.0,Calm,Calm,-,N/A,,Mostly Cloudy,0,2013-09-21 11:51:00
8:23 AM,62.6,59.0,88,29.96,10.0,Calm,Calm,-,N/A,,Mostly Cloudy,0,2013-09-21 12:23:00
8:51 AM,64.0,60.1,87,29.96,10.0,Calm,Calm,-,N/A,,Mostly Cloudy,0,2013-09-21 12:51:00
9:33 AM,64.4,59.0,83,29.94,10.0,Calm,Calm,-,N/A,,Mostly Cloudy,0,2013-09-21 13:33:00
9:51 AM,66.0,61.0,84,29.93,10.0,Calm,Calm,-,N/A,,Mostly Cloudy,0,2013-09-21 13:51:00
10:08 AM,66.2,60.8,83,29.92,10.0,SSE,4.6,-,N/A,,Mostly Cloudy,150,2013-09-21 14:08:00
10:51 AM,70.0,63.0,78,29.91,10.0,East,5.8,-,N/A,,Mostly Cloudy,100,2013-09-21 14:51:00
11:51 AM,72.0,64.0,76,29.88,10.0,SE,11.5,-,N/A,,Overcast,140,2013-09-21 15:51:00
12:51 PM,75.9,64.0,67,29.85,10.0,South,10.4,18.4,N/A,,Mostly Cloudy,170,2013-09-21 16:51:00
1:51 PM,77.0,62.1,60,29.81,10.0,South,12.7,23.0,N/A,,Mostly Cloudy,180,2013-09-21 17:51:00
2:51 PM,80.1,59.0,48,29.78,10.0,SSE,13.8,19.6,N/A,,Mostly Cloudy,160,2013-09-21 18:51:00
3:51 PM,78.1,61.0,56,29.76,10.0,SSE,16.1,25.3,N/A,,Mostly Cloudy,150,2013-09-21 19:51:00
4:51 PM,77.0,62.1,60,29.75,10.0,South,15.0,25.3,N/A,,Mostly Cloudy,170,2013-09-21 20:51:00
5:51 PM,75.0,63.0,66,29.74,10.0,SSE,16.1,26.5,N/A,,Mostly Cloudy,160,2013-09-21 21:51:00
6:51 PM,73.0,64.9,76,29.73,10.0,SSE,12.7,18.4,N/A,,Overcast,160,2013-09-21 22:51:00
7:51 PM,72.0,66.0,81,29.73,10.0,SSE,10.4,-,N/A,,Overcast,160,2013-09-21 23:51:00
8:51 PM,72.0,66.0,81,29.71,10.0,South,11.5,-,N/A,,Overcast,170,2013-09-22 00:51:00
9:51 PM,72.0,66.9,84,29.70,10.0,South,9.2,-,0.00,,Overcast,170,2013-09-22 01:51:00
10:46 PM,69.8,68.0,94,29.69,4.0,South,12.7,-,0.08,Rain,Light Rain,180,2013-09-22 02:46:00
10:51 PM,70.0,66.9,90,29.69,4.0,South,11.5,24.2,0.08,Rain,Light Rain,180,2013-09-22 02:51:00
11:51 PM,70.0,68.0,93,29.67,3.0,South,12.7,20.7,0.19,Rain,Light Rain,180,2013-09-22 03:51:00